Date String (YYYY-MM-DD hh:mm:ss) UTC,Instrument flags,Ambient pressure (hPa),Sample flow (lpm),Bypass flow (lpm),Sample temperature (°C),Ambient temperature (°C),ASC tube jacket temperature (°C),LED temperature (°C),Box temperature (°C),Sample RH (%),Span deviation,Mass concentration (μg/m³),Mass concentration (μg/m³),Mass concentration (μg/m³)
DateTimeUTC,F1_M11,P_M11,Q1_M11,Q2_M11,T1_M11,T2_M11,T3_M11,T4_M11,T5_M11,U1_M11,ZSPAN_M11,X2_M11,X0_M11,X1_M11
2022-05-01 15:00:00,,0824.1,5.00,0.00,25.6,24.7,00.0,34.5,27.4,13.6,0000.0,0004.93,0010.10,0004.08
2022-05-01 15:01:00,,0824.1,5.00,0.00,25.6,24.7,00.0,34.5,27.4,13.7,0000.0,0004.93,0009.94,0004.07
2022-05-01 15:02:00,,0824.1,5.01,0.00,25.6,24.7,00.0,34.5,27.5,13.7,0000.0,0004.90,0009.70,0004.06
2022-05-01 15:03:00,,0824.1,5.00,0.00,25.6,24.7,00.0,34.5,27.5,13.7,0000.0,0004.91,0009.84,0004.04
2022-05-01 15:04:00,,0824.0,4.99,0.00,25.6,24.7,00.0,34.5,27.5,13.7,0000.0,0004.96,0010.45,0004.02
2022-05-01 15:05:00,,0824.1,5.01,0.00,25.6,24.7,00.0,34.5,27.5,13.8,0000.0,0004.95,0010.54,0004.00
2022-05-01 15:06:00,,0824.1,5.01,0.00,25.6,24.7,00.0,34.5,27.5,13.9,0000.0,0004.88,0010.25,0003.97
2022-05-01 15:07:00,,0824.1,4.99,0.00,25.7,24.7,00.0,34.5,27.5,13.7,0000.0,0004.84,0010.33,0003.96
2022-05-01 15:08:00,,0824.1,5.01,0.00,25.7,24.7,00.0,34.5,27.5,13.7,0000.0,0004.78,0010.06,0003.95
2022-05-01 15:09:00,,0824.0,5.00,0.00,25.7,24.7,00.0,34.6,27.5,13.7,0000.0,0004.77,0009.89,0003.93
2022-05-01 15:10:00,,0824.1,4.99,0.00,25.7,24.7,00.0,34.6,27.5,13.6,0000.0,0004.81,0009.75,0003.93
2022-05-01 15:11:00,,0824.1,5.01,0.00,25.7,24.7,00.0,34.6,27.5,13.5,0000.0,0004.82,0010.08,0003.93
2022-05-01 15:12:00,,0824.1,4.99,0.00,25.7,24.7,00.0,34.6,27.5,13.6,0000.0,0004.80,0010.28,0003.93
2022-05-01 15:13:00,,0824.1,5.00,0.00,25.7,24.7,00.0,34.6,27.6,13.7,0000.0,0004.79,0011.10,0003.92
2022-05-01 15:14:00,,0824.1,5.00,0.00,25.7,24.8,00.0,34.6,27.6,13.7,0000.0,0004.77,0011.14,0003.93
2022-05-01 15:15:00,,0824.0,4.99,0.00,25.7,24.8,00.0,34.6,27.6,13.9,0000.0,0004.73,0010.56,0003.93
2022-05-01 15:16:00,,0824.0,5.00,0.00,25.7,24.8,00.0,34.6,27.6,13.8,0000.0,0004.72,0010.73,0003.93
2022-05-01 15:17:00,,0824.0,5.01,0.00,25.8,24.8,00.0,34.6,27.6,13.7,0000.0,0004.77,0010.61,0003.95
2022-05-01 15:18:00,,0824.0,4.99,0.00,25.8,24.8,00.0,34.6,27.6,13.6,0000.0,0004.81,0011.03,0003.96
2022-05-01 15:19:00,,0824.0,4.99,0.00,25.8,24.8,00.0,34.6,27.6,13.8,0000.0,0004.82,0011.17,0003.98
2022-05-01 15:20:00,,0824.0,5.01,0.00,25.8,24.8,00.0,34.6,27.6,13.6,0000.0,0004.84,0011.32,0004.00
2022-05-01 15:21:00,,0824.0,5.00,0.00,25.8,24.8,00.0,34.6,27.6,13.6,0000.0,0004.86,0011.52,0004.04
2022-05-01 15:22:00,,0824.0,4.99,0.00,25.8,24.8,00.0,34.6,27.6,13.6,0000.0,0004.90,0011.93,0004.07
2022-05-01 15:23:00,,0824.1,4.99,0.00,25.8,24.8,00.0,34.7,27.6,13.6,0000.0,0004.92,0012.01,0004.10
2022-05-01 15:24:00,,0824.1,5.01,0.00,25.8,24.8,00.0,34.7,27.6,13.6,0000.0,0004.92,0011.49,0004.12
2022-05-01 15:25:00,,0824.1,4.99,0.00,25.8,24.9,00.0,34.7,27.6,13.5,0000.0,0004.98,0011.92,0004.16
2022-05-01 15:26:00,,0824.1,5.02,0.00,25.8,24.9,00.0,34.7,27.6,13.5,0000.0,0005.02,0012.95,0004.21
2022-05-01 15:27:00,,0824.1,4.99,0.00,25.8,24.9,00.0,34.7,27.7,13.7,0000.0,0005.03,0012.72,0004.26
2022-05-01 15:28:00,,0824.0,5.00,0.00,25.8,24.9,00.0,34.7,27.7,13.7,0000.0,0005.02,0012.89,0004.28
2022-05-01 15:29:00,,0824.1,5.02,0.00,25.8,24.9,00.0,34.7,27.7,13.6,0000.0,0005.00,0012.65,0004.32
2022-05-01 15:30:00,,0824.0,4.99,0.00,25.9,24.9,00.0,34.7,27.7,13.5,0000.0,0005.00,0012.47,0004.35
2022-05-01 15:31:00,,0824.0,4.99,0.00,25.9,24.9,00.0,34.7,27.7,13.6,0000.0,0005.03,0012.50,0004.37
2022-05-01 15:32:00,,0824.0,5.01,0.00,25.9,25.0,00.0,34.7,27.7,13.6,0000.0,0005.02,0012.24,0004.38
2022-05-01 15:33:00,,0823.9,4.99,0.00,25.9,25.0,00.0,34.8,27.7,13.7,0000.0,0005.05,0011.75,0004.40
2022-05-01 15:34:00,,0824.0,5.00,0.00,25.9,25.0,00.0,34.8,27.8,13.6,0000.0,0005.08,0012.04,0004.43
2022-05-01 15:35:00,,0824.0,5.02,0.00,25.9,25.0,00.0,34.8,27.8,13.7,0000.0,0005.11,0012.36,0004.44
2022-05-01 15:36:00,,0824.0,4.99,0.00,25.9,25.0,00.0,34.8,27.8,13.5,0000.0,0005.09,0011.79,0004.43
2022-05-01 15:37:00,,0824.0,5.00,0.00,25.9,25.0,00.0,34.8,27.8,13.5,0000.0,0005.07,0010.72,0004.43
2022-05-01 15:38:00,,0824.0,5.00,0.00,25.9,25.0,00.0,34.8,27.8,13.5,0000.0,0005.12,0010.80,0004.44
2022-05-01 15:39:00,,0824.0,5.02,0.00,26.0,25.0,00.0,34.8,27.8,13.5,0000.0,0005.18,0010.90,0004.47
2022-05-01 15:40:00,,0823.9,5.00,0.00,26.0,25.0,00.0,34.8,27.8,13.6,0000.0,0005.23,0011.21,0004.48
2022-05-01 15:41:00,,0824.0,5.00,0.00,26.0,25.0,00.0,34.8,27.8,13.5,0000.0,0005.29,0011.84,0004.50
2022-05-01 15:42:00,,0824.0,4.98,0.00,26.0,25.0,00.0,34.8,27.9,13.5,0000.0,0005.31,0011.86,0004.52
2022-05-01 15:43:00,,0823.9,5.00,0.00,26.0,25.1,00.0,34.9,27.8,13.5,0000.0,0005.37,0012.09,0004.54
2022-05-01 15:44:00,,0823.9,5.01,0.00,26.0,25.1,00.0,34.9,27.9,13.6,0000.0,0005.38,0012.05,0004.56
2022-05-01 15:45:00,,0823.9,4.99,0.00,26.0,25.1,00.0,34.9,27.9,13.6,0000.0,0005.42,0011.96,0004.57
2022-05-01 15:46:00,,0823.8,5.02,0.00,26.0,25.1,00.0,34.9,27.9,13.4,0000.0,0005.46,0011.42,0004.60
2022-05-01 15:47:00,,0823.8,4.99,0.00,26.0,25.1,00.0,34.9,27.9,13.4,0000.0,0005.52,0011.39,0004.62
2022-05-01 15:48:00,,0823.8,5.02,0.00,26.1,25.1,00.0,34.9,27.9,13.5,0000.0,0005.52,0011.32,0004.64
2022-05-01 15:49:00,,0823.8,4.99,0.00,26.1,25.1,00.0,34.9,27.9,13.4,0000.0,0005.54,0011.25,0004.65
2022-05-01 15:50:00,,0823.8,5.01,0.00,26.1,25.1,00.0,34.9,28.0,13.7,0000.0,0005.57,0011.08,0004.67
2022-05-01 15:51:00,,0823.8,4.99,0.00,26.1,25.2,00.0,34.9,28.0,13.5,0000.0,0005.58,0010.56,0004.68
2022-05-01 15:52:00,,0823.8,5.00,0.00,26.1,25.2,00.0,34.9,28.0,13.5,0000.0,0005.56,0010.15,0004.67
2022-05-01 15:53:00,,0823.8,5.01,0.00,26.1,25.2,00.0,34.9,28.0,13.5,0000.0,0005.55,0010.15,0004.66
2022-05-01 15:54:00,,0823.8,5.01,0.00,26.1,25.2,00.0,35.0,28.0,13.5,0000.0,0005.50,0009.96,0004.66
2022-05-01 15:55:00,,0823.8,4.98,0.00,26.1,25.2,00.0,35.0,28.0,13.4,0000.0,0005.49,0009.75,0004.65
2022-05-01 15:56:00,,0823.7,4.99,0.00,26.1,25.2,00.0,35.0,28.0,13.5,0000.0,0005.48,0009.33,0004.65
2022-05-01 15:57:00,,0823.6,5.01,0.00,26.2,25.2,00.0,35.0,28.0,13.5,0000.0,0005.44,0009.38,0004.65
2022-05-01 15:58:00,,0823.6,5.00,0.00,26.2,25.2,00.0,35.0,28.0,13.4,0000.0,0005.42,0009.36,0004.63
2022-05-01 15:59:00,,0823.7,4.99,0.00,26.2,25.2,00.0,35.0,28.0,13.5,0000.0,0005.46,0009.61,0004.63
